Find Starlink 1704

NORAD ID: 47625 Int'l Des: 2021-012 Owner: SPXS Country: US Constellation: starlink operational
LEOCIRCULAR

Live-Position

3D-Globus wird geladen...

Über Starlink 1704

Beschreibung wird geladen...

Nächste Überflüge

Passes for default location (London). Set your location on the main map for personalized predictions.

Höhenverlauf

Loading altitude history...

Zweizeiliger Elementsatz

1 47625U 21012F 26124.08081404 .00096734 00000-0 15555-2 0 9992
2 47625 53.0465 157.8378 0008635 19.1486 340.9846 15.52199004288681
Epoch: 4. Mai 2026 • Age: 9 hours

Aktueller Status

Höhe 408.4 km
Geschwindigkeit 7.67 km/s
Subsatellitenpunkt 38.95°N, 159.29°E
Startdatum 16. Feb. 2021
Alter 5.2 years
Typ internet

Technische Details

Klassifizierung Payload
Masse 260.00 kg
Trockenmasse 248.00 kg
Gesamtmasse 260.00 kg
Länge 0.20 m
Durchmesser 2.80 m
Spannweite 9.00 m
Form Box + pan
Hersteller SPXS
Bus-Typ Starlink
Phasenstatus In Orbit
Besitzer/Staat SPXS/US

Most Searched